H1 CPF 2 COD 2020 9 8 1 252 1 galileo214 NONE
H2 1606904 7214 41862 2020 9 7 23 59 42 2020 9 12 23 44 42 900 1 1 0 0 0 1
H5 0.5552
H9
10 0 59104  26982.000000  0  -19188167.875 -22095253.117   4471511.322
10 0 59104  27882.000000  0  -19383329.696 -22303076.224   1800853.747
10 0 59104  28782.000000  0  -19434939.575 -22313033.005   -892198.204
10 0 59104  29682.000000  0  -19317911.514 -22145560.299  -3574157.591
10 0 59104  30582.000000  0  -19011512.572 -21825551.808  -6211675.461
10 0 59104  31482.000000  0  -18500063.571 -21381537.060  -8771955.640
10 0 59104  32382.000000  0  -17773483.273 -20844748.809 -11223162.604
10 0 59104  33282.000000  0  -16827658.939 -20248108.313 -13534817.348
10 0 59104  34182.000000  0  -15664631.580 -19625160.281 -15678176.240
10 0 59104  35082.000000  0  -14292590.013 -19008990.986 -17626588.221
10 0 59104  35982.000000  0  -12725673.808 -18431163.470 -19355825.875
10 0 59104  36882.000000  0  -10983591.216 -17920703.226 -20844386.306
10 0 59104  37782.000000  0   -9091063.953 -17503166.186 -22073758.109
10 0 59104  38682.000000  0   -7077116.074 -17199818.199 -23028651.195
10 0 59104  39582.000000  0   -4974229.122 -17026951.734 -23697186.641
10 0 59104  40482.000000  0   -2817389.812 -16995361.183 -24071044.273
10 0 59104  41382.000000  0    -643059.887 -17109993.241 -24145566.192
10 0 59104  42282.000000  0    1511899.750 -17369783.294 -23919814.963
10 0 59104  43182.000000  0    3611317.172 -17767683.007 -23396585.764
10 0 59104  44082.000000  0    5620775.952 -18290878.268 -22582372.315
10 0 59104  44982.000000  0    7508626.844 -18921190.728 -21487286.958
10 0 59104  45882.000000  0    9246913.108 -19635650.432 -20124935.851
10 0 59104  46782.000000  0   10812180.667 -20407221.652 -18512250.708
10 0 59104  47682.000000  0   12186147.788 -21205659.245 -16669279.130
10 0 59104  48582.000000  0   13356213.421 -21998468.745 -14618936.039
10 0 59104  49482.000000  0   14315788.367 -22751940.102 -12386719.219
10 0 59104  50382.000000  0   15064438.895 -23432222.674 -10000392.473
10 0 59104  51282.000000  0   15607838.393 -24006407.712  -7489640.288
10 0 59104  52182.000000  0   15957528.644 -24443584.334  -4885698.281
10 0 59104  53082.000000  0   16130498.224 -24715835.788  -2220964.083
10 0 59104  53982.000000  0   16148591.372 -24799144.644    471406.479
10 0 59104  54882.000000  0   16037765.971 -24674178.404   3157912.816
10 0 59104  55782.000000  0   15827224.010 -24326930.801   5805127.360
10 0 59104  56682.000000  0   15548441.973 -23749198.537   8380112.442
10 0 59104  57582.000000  0   15234131.708 -22938878.443  10850830.973
10 0 59104  58482.000000  0   14917164.509 -21900075.678  13186545.731
10 0 59104  59382.000000  0   14629492.310 -20643019.521  15358202.213
10 0 59104  60282.000000  0   14401099.954 -19183789.353  17338790.294
10 0 59104  61182.000000  0   14259021.488 -17543859.425  19103680.113
10 0 59104  62082.000000  0   14226451.397 -15749476.646  20630928.072
10 0 59104  62982.000000  0   14321978.726 -13830890.834  21901549.176
10 0 59104  63882.000000  0   14558968.075 -11821461.550  22899752.354
10 0 59104  64782.000000  0   14945106.924  -9756669.387  23613135.954
10 0 59104  65682.000000  0   15482133.451  -7673062.576  24032841.033
10 0 59104  66582.000000  0   16165753.364  -5607171.809  24153660.630
10 0 59104  67482.000000  0   16985748.378  -3594427.067  23974103.727
10 0 59104  68382.000000  0   17926272.940  -1668110.210  23496413.171
10 0 59104  69282.000000  0   18966329.934    141624.063  22726537.354
10 0 59104  70182.000000  0   20080410.523   1808628.414  21674056.035
10 0 59104  71082.000000  0   21239278.134   3311516.889  20352061.198
10 0 59104  71982.000000  0   22410872.099   4634269.285  18776994.414
10 0 59104  72882.000000  0   23561302.710   5766667.124  16968442.686
10 0 59104  73782.000000  0   24655906.592   6704547.749  14948895.238
10 0 59104  74682.000000  0   25660329.362   7449868.645  12743464.252
10 0 59104  75582.000000  0   26541601.706   8010580.146  10379572.958
10 0 59104  76482.000000  0   27269175.172   8400310.605   7886614.897
10 0 59104  77382.000000  0   27815885.206   8637873.962   5295588.605
10 0 59104  78282.000000  0   28158811.255   8746615.275   2638712.223
10 0 59104  79182.000000  0   28280006.929   8753614.817    -50977.156
10 0 59104  80082.000000  0   28167077.259   8688775.760  -2740034.395
10 0 59104  80982.000000  0   27813585.090   8583824.258  -5395022.322
10 0 59104  81882.000000  0   27219273.688   8471253.294  -7982927.666
10 0 59104  82782.000000  0   26390098.469   8383243.492 -10471571.635
10 0 59104  83682.000000  0   25338067.006   8350594.915 -12830010.053
10 0 59104  84582.000000  0   24080892.172   8401703.431 -15028918.048
10 0 59104  85482.000000  0   22641469.345   8561613.788 -17040954.464
99